User: anonymous   Login
Location: Unspecified
(0.0000°N, 0.0000°E)
Time: 00:08:56
(UTC+00:00)
Language:

NORSAT 1 - Orbit

View from above orbital plane
View from above orbital plane
View from above satellite
View from above satellite

Ground track
Ground track

The orbit data is extracted from the following two-line orbital elements,

1 42826U 17042B   18112.81779773  .00000472  00000-0  53515-4 0  9994
2 42826  97.6005  17.1543 0015930  26.2629 333.9393 14.90685371 42088
Epoch (UTC): 22 April 2018 19:37:37
Eccentricity: 0.0015930
inclination: 97.6005°
perigee height: 584 km
apogee height: 607 km
right ascension of ascending node: 17.1543°
argument of perigee: 26.2629°
revolutions per day: 14.90685371
mean anomaly at epoch: 333.9393°
orbit number at epoch: 4208

The dashed part of the orbit path shows where the satellite is in the earth's shadow,  

DLR